TimeEDT,TemperatureF,Dew PointF,Humidity,Sea Level PressureIn,VisibilityMPH,Wind Direction,Wind SpeedMPH,Gust SpeedMPH,PrecipitationIn,Events,Conditions,WindDirDegrees,DateUTC
12:06 AM,68.0,66.2,94,30.21,0.2,NW,3.5,-,N/A,Fog,Fog,320,2013-08-11 04:06:00
12:17 AM,68.0,66.2,94,30.21,0.5,NW,4.6,-,N/A,Fog,Fog,310,2013-08-11 04:17:00
12:54 AM,68.0,66.9,96,30.14,0.8,NW,3.5,-,N/A,,Mist,320,2013-08-11 04:54:00
1:14 AM,68.0,66.2,94,30.21,1.5,NW,4.6,-,N/A,,Overcast,320,2013-08-11 05:14:00
1:23 AM,68.0,66.2,94,30.21,2.0,NW,5.8,-,N/A,,Overcast,320,2013-08-11 05:23:00
1:38 AM,66.2,66.2,100,30.20,1.2,NNW,8.1,-,N/A,,Overcast,330,2013-08-11 05:38:00
1:54 AM,66.9,66.9,100,30.14,1.0,NNW,5.8,-,N/A,,Overcast,330,2013-08-11 05:54:00
2:54 AM,66.9,66.9,100,30.14,0.8,Calm,Calm,-,N/A,,Mist,0,2013-08-11 06:54:00
3:54 AM,66.9,66.9,100,30.13,0.8,WSW,3.5,-,N/A,,Mist,240,2013-08-11 07:54:00
4:17 AM,66.2,66.2,100,30.20,1.5,Calm,Calm,-,N/A,,Overcast,0,2013-08-11 08:17:00
4:22 AM,66.2,66.2,100,30.20,3.0,Calm,Calm,-,N/A,,Overcast,0,2013-08-11 08:22:00
4:35 AM,66.2,66.2,100,30.20,1.5,Calm,Calm,-,N/A,,Overcast,0,2013-08-11 08:35:00
4:43 AM,66.2,66.2,100,30.20,1.0,Calm,Calm,-,N/A,,Overcast,0,2013-08-11 08:43:00
4:54 AM,66.9,66.9,100,30.12,1.2,Calm,Calm,-,N/A,,Overcast,0,2013-08-11 08:54:00
5:36 AM,66.2,66.2,100,30.21,2.0,NNW,5.8,-,N/A,,Overcast,330,2013-08-11 09:36:00
5:45 AM,66.2,66.2,100,30.21,3.0,NNW,5.8,-,N/A,,Overcast,330,2013-08-11 09:45:00
5:52 AM,66.2,66.2,100,30.21,2.0,NNW,4.6,-,N/A,,Overcast,340,2013-08-11 09:52:00
5:54 AM,66.9,66.9,100,30.13,1.8,NNW,4.6,-,N/A,,Overcast,340,2013-08-11 09:54:00
6:05 AM,66.2,66.2,100,30.22,3.0,NNW,4.6,-,N/A,,Overcast,340,2013-08-11 10:05:00
6:16 AM,66.2,66.2,100,30.22,2.0,North,3.5,-,N/A,,Overcast,360,2013-08-11 10:16:00
6:54 AM,66.9,66.0,97,30.15,2.0,North,3.5,-,N/A,,Overcast,360,2013-08-11 10:54:00
7:15 AM,66.2,66.2,100,30.22,1.8,NNW,5.8,-,N/A,,Overcast,330,2013-08-11 11:15:00
7:26 AM,66.2,66.2,100,30.22,2.0,NNW,5.8,-,N/A,,Overcast,330,2013-08-11 11:26:00
7:34 AM,66.2,66.2,100,30.22,1.8,NNW,8.1,-,N/A,,Overcast,330,2013-08-11 11:34:00
7:49 AM,66.2,66.2,100,30.23,3.0,North,3.5,-,N/A,,Overcast,350,2013-08-11 11:49:00
7:54 AM,66.9,66.0,97,30.16,2.0,NNW,5.8,-,N/A,,Overcast,340,2013-08-11 11:54:00
8:54 AM,68.0,66.9,96,30.17,2.0,North,8.1,-,N/A,,Overcast,350,2013-08-11 12:54:00
9:01 AM,68.0,66.2,94,30.24,7.0,NNW,8.1,-,N/A,,Overcast,340,2013-08-11 13:01:00
9:27 AM,71.6,66.2,83,30.24,10.0,NNE,4.6,-,N/A,,Scattered Clouds,20,2013-08-11 13:27:00
9:54 AM,71.1,68.0,90,30.18,10.0,NNW,8.1,-,N/A,,Partly Cloudy,340,2013-08-11 13:54:00
10:54 AM,75.9,69.1,79,30.16,10.0,North,6.9,-,N/A,,Clear,350,2013-08-11 14:54:00
11:54 AM,80.1,68.0,67,30.14,10.0,NNW,11.5,-,N/A,,Scattered Clouds,330,2013-08-11 15:54:00
12:54 PM,81.0,68.0,65,30.14,10.0,North,4.6,-,0.00,Rain,Light Rain,350,2013-08-11 16:54:00
1:54 PM,79.0,73.0,82,30.12,10.0,SSE,6.9,-,0.00,,Scattered Clouds,160,2013-08-11 17:54:00
2:54 PM,77.0,71.1,82,30.12,7.0,South,5.8,-,0.01,Rain,Light Rain,170,2013-08-11 18:54:00
3:08 PM,75.2,71.6,89,30.19,1.8,South,5.8,-,0.06,Rain,Heavy Rain,170,2013-08-11 19:08:00
3:17 PM,75.2,71.6,89,30.18,3.0,SSE,4.6,-,0.14,Rain,Light Rain,150,2013-08-11 19:17:00
3:30 PM,75.2,71.6,89,30.18,10.0,ESE,4.6,-,0.14,Rain-Thunderstorm,Light Thunderstorms and Rain,120,2013-08-11 19:30:00
3:54 PM,73.9,71.1,91,30.10,10.0,South,6.9,-,0.14,Rain-Thunderstorm,Light Thunderstorms and Rain,170,2013-08-11 19:54:00
4:13 PM,73.4,71.6,94,30.19,1.8,SSW,4.6,-,0.07,Rain-Thunderstorm,Heavy Thunderstorms and Rain,210,2013-08-11 20:13:00
4:21 PM,73.4,71.6,94,30.19,1.2,Calm,Calm,-,0.19,Rain-Thunderstorm,Light Thunderstorms and Rain,0,2013-08-11 20:21:00
4:23 PM,73.4,71.6,94,30.19,2.0,Calm,Calm,-,0.19,Rain-Thunderstorm,Light Thunderstorms and Rain,0,2013-08-11 20:23:00
4:27 PM,73.4,71.6,94,30.19,6.0,Calm,Calm,-,0.19,Rain-Thunderstorm,Light Thunderstorms and Rain,0,2013-08-11 20:27:00
4:54 PM,73.9,70.0,87,30.11,10.0,South,5.8,-,0.19,Thunderstorm,Thunderstorm,180,2013-08-11 20:54:00
5:54 PM,77.0,70.0,79,30.09,10.0,Calm,Calm,-,N/A,Thunderstorm,Thunderstorm,0,2013-08-11 21:54:00
5:57 PM,77.0,69.8,78,30.17,10.0,Calm,Calm,-,N/A,,Clear,0,2013-08-11 21:57:00
6:54 PM,77.0,70.0,79,30.10,10.0,SSE,3.5,-,N/A,,Clear,160,2013-08-11 22:54:00
7:54 PM,75.0,71.1,87,30.10,10.0,Calm,Calm,-,N/A,,Clear,0,2013-08-11 23:54:00
8:54 PM,73.9,71.1,91,30.10,10.0,North,3.5,-,N/A,,Partly Cloudy,350,2013-08-12 00:54:00
9:54 PM,73.0,66.9,81,30.12,10.0,North,6.9,-,0.00,,Mostly Cloudy,350,2013-08-12 01:54:00
10:54 PM,70.0,68.0,93,30.13,10.0,Calm,Calm,-,N/A,,Partly Cloudy,0,2013-08-12 02:54:00
11:54 PM,70.0,68.0,93,30.12,10.0,NNW,3.5,-,N/A,,Partly Cloudy,340,2013-08-12 03:54:00